Overview Statistics Trail Chart Weather Telemetry Raw packets
 

This is the latest recevied weather packets stored in our database for station/object IU5GBO-13. If no packets are shown the sender has not sent any weather packets the latest 10 day(s).

<< 53 54 55 56 57 58 >>
Time Temp. Humidity Pressure Rain* Wind** Luminosity Snow
1777237052 14.44° C 63% 1020.7 hPa - - - -
1777236451 15° C 62% 1020.7 hPa - - - -
1777235852 15° C 61% 1020.6 hPa - - - -
1777235252 15° C 61% 1020.7 hPa - - - -
1777234652 15.56° C 60% 1020.5 hPa - - - -
1777234051 15.56° C 59% 1020.5 hPa - - - -
1777233452 15.56° C 59% 1020.3 hPa - - - -
1777232851 16.11° C 58% 1020.3 hPa - - - -
1777232251 16.11° C 58% 1020.2 hPa - - - -
1777231651 16.11° C 57% 1020 hPa - - - -
1777231052 16.11° C 54% 1020 hPa - - - -
1777230451 16.67° C 57% 1019.9 hPa - - - -
1777229851 16.67° C 57% 1019.8 hPa - - - -
1777229252 16.67° C 57% 1019.7 hPa - - - -
1777228652 16.67° C 57% 1019.6 hPa - - - -
1777228052 17.22° C 57% 1019.6 hPa - - - -
1777227451 17.22° C 56% 1019.4 hPa - - - -
1777226851 17.78° C 57% 1019.3 hPa - - - -
1777226251 17.78° C 56% 1019.2 hPa - - - -
1777225652 18.33° C 55% 1019.1 hPa - - - -
1777225052 18.89° C 54% 1019 hPa - - - -
1777224451 18.89° C 52% 1019 hPa - - - -
1777223851 19.44° C 50% 1019 hPa - - - -
1777223251 19.44° C 47% 1019.1 hPa - - - -
1777222652 20° C 46% 1019.2 hPa - - - -

* Rain since midnight (hover to see other rain measurements)
** Current wind speed in m/s (hover to see current wind gust speed)